Flight Track Log - Related Links

Times and Time Zones

All times are in EDT time to prevent confusion due to time zone crossing. See the CES2006 flight status page for this flight to view local times or setup timezone preferences in your user account.

Time Position Orientation Groundspeed Altitude Reporting Facility
EDT Latitude Longitude Course Direction KTS MPH feet Rate Location/Type
Tue 03:49:20 AM 1.2826 103.9692 182° South 168 193 3,200  Level FlightAware ADS-B (WSAT / TGA)
Tue 03:50:05 AM 1.2410 103.9716 181° South 175 201 3,700 612 Climbing FlightAware ADS-B (WSAT / TGA)
Tue 03:50:09 AM 1.2401 103.9721 150° Southeast 231 266 3,700 1,971 Level FlightAware ADS-B (WSAT / TGA)
Tue 03:51:15 AM 1.2443 104.0375 35° Northeast 280 322 6,000 2,074 Climbing FlightAware ADS-B (WSAT / TGA)
Tue 03:51:30 AM 1.2618 104.0488 29° Northeast 287 330 6,500 2,400 Climbing FlightAware ADS-B (WSAT / TGA)
Tue 03:51:35 AM 1.2703 104.0530 22° Northeast 285 328 6,800 2,880 Climbing FlightAware ADS-B (WSAT / TGA)
Tue 03:51:55 AM 1.2946 104.0559 North 282 325 7,700 2,640 Climbing FlightAware ADS-B (WSAT / TGA)
Tue 03:52:00 AM 1.3000 104.0554 351° North 278 320 7,900 2,182 Climbing FlightAware ADS-B (WSAT / TGA)
Tue 03:52:06 AM 1.3093 104.0534 345° North 277 319 8,100 2,700 Climbing FlightAware ADS-B (WSAT / TGA)
Tue 03:52:20 AM 1.3256 104.0484 343° North 276 318 8,800 2,690 Climbing FlightAware ADS-B (WSAT / TGA)
Tue 03:52:35 AM 1.3443 104.0428 344° North 277 319 9,400 2,200 Climbing FlightAware ADS-B (WSAT / TGA)
Tue 03:52:50 AM 1.3643 104.0369 344° North 283 326 9,900 2,133 Climbing FlightAware ADS-B (WSAT / TGA)
Tue 03:53:20 AM 1.4021 104.0261 344° North 287 330 11,000 2,200 Climbing FlightAware ADS-B (WSAT / TGA)
Tue 03:53:50 AM 1.4390 104.0119 327° Northwest 289 333 12,100 2,300 Climbing FlightAware ADS-B (WSAT / TGA)
Tue 03:54:20 AM 1.4712 103.9875 323° Northwest 289 333 13,300 2,400 Climbing FlightAware ADS-B (WSAT / TGA)
Tue 03:54:25 AM 1.4782 103.9821 322° Northwest 290 334 13,500 1,800 Climbing FlightAware ADS-B
Tue 03:54:50 AM 1.5047 103.9618 323° Northwest 295 339 14,200 1,784 Climbing FlightAware ADS-B (WSAT / TGA)
Tue 03:55:02 AM 1.5182 103.9514 322° Northwest 300 345 14,600 1,400 Climbing FlightAware ADS-B
Tue 03:55:20 AM 1.5374 103.9362 322° Northwest 312 359 14,900 968 Climbing FlightAware ADS-B (WSAT / TGA)
Tue 03:55:33 AM 1.5541 103.9227 321° Northwest 323 372 15,100 1,000 Climbing FlightAware ADS-B
Tue 03:55:50 AM 1.5705 103.9092 321° Northwest 330 380 15,400 1,024 Climbing FlightAware ADS-B (WSAT / TGA)
Tue 03:56:14 AM 1.6030 103.8825 321° Northwest 346 398 15,800 1,000 Climbing FlightAware ADS-B
Tue 03:56:20 AM 1.6078 103.8786 321° Northwest 349 402 15,900 1,500 Climbing FlightAware ADS-B (WSAT / TGA)
Tue 03:56:50 AM 1.6480 103.8463 322° Northwest 358 412 16,700 1,800 Climbing FlightAware ADS-B (WSAT / TGA)
Tue 03:57:20 AM 1.6848 103.8172 324° Northwest 356 410 17,700 1,778 Climbing FlightAware ADS-B (WSAT / TGA)
Tue 03:57:44 AM 1.7211 103.7935 325° Northwest 356 410 18,300 1,400 Climbing FlightAware ADS-B
Tue 03:57:50 AM 1.7258 103.7908 331° Northwest 367 422 18,400 1,161 Climbing FlightAware ADS-B (WSAT / TGA)
Tue 03:58:15 AM 1.7674 103.7675 331° Northwest 374 430 18,900 1,200 Climbing FlightAware ADS-B
Tue 03:58:20 AM 1.7735 103.7641 331° Northwest 376 433 19,000 1,200 Climbing FlightAware ADS-B (WSAT / TGA)
Tue 03:58:50 AM 1.8110 103.7426 331° Northwest 383 441 19,600 1,500 Climbing FlightAware ADS-B (WSAT / TGA)
Tue 03:58:52 AM 1.8243 103.7350 330° Northwest 384 442 19,800 1,600 Climbing FlightAware ADS-B
Tue 03:59:20 AM 1.8667 103.7106 330° Northwest 390 449 20,400 1,313 Climbing FlightAware ADS-B (WSAT / TGA)
Tue 03:59:24 AM 1.8736 103.7065 330° Northwest 390 449 20,500 1,600 Climbing FlightAware ADS-B
Tue 03:59:50 AM 1.9130 103.6837 330° Northwest 393 452 21,200 1,667 Climbing FlightAware ADS-B (WSAT / TGA)
Tue 04:00:00 AM 1.9320 103.6728 330° Northwest 395 455 21,500 1,600 Climbing FlightAware ADS-B
Tue 04:00:20 AM 1.9596 103.6569 330° Northwest 394 453 22,000 1,548 Climbing FlightAware ADS-B (WSAT / TGA)
Tue 04:00:31 AM 1.9807 103.6444 329° Northwest 396 456 22,300 1,400 Climbing FlightAware ADS-B
Tue 04:00:50 AM 2.0075 103.6283 329° Northwest 397 457 22,700 1,469 Climbing FlightAware ADS-B (WSAT / TGA)
Tue 04:01:20 AM 2.0563 103.5988 329° Northwest 396 456 23,500 1,500 Climbing FlightAware ADS-B (WSAT / TGA)
Tue 04:01:50 AM 2.1024 103.5713 330° Northwest 396 456 24,200 1,313 Climbing FlightAware ADS-B (WSAT / TGA)
Tue 04:01:52 AM 2.1088 103.5676 329° Northwest 397 457 24,200 686 Level FlightAware ADS-B
Tue 04:02:25 AM 2.1598 103.5374 330° Northwest 405 466 24,600 1,048 Climbing FlightAware ADS-B (WSAT / TGA)
Tue 04:02:55 AM 2.2085 103.5092 333° Northwest 402 463 25,300 1,350 Climbing FlightAware ADS-B (WSAT / TGA)
Tue 04:03:05 AM 2.2252 103.5027 345° North 403 464 25,500 947 Climbing FlightAware ADS-B (WSAT / TGA)
Tue 04:03:14 AM 2.2426 103.4997 356° North 403 464 25,600 900 Climbing FlightAware ADS-B (WSAT / TGA)
Tue 04:03:25 AM 2.2624 103.5003 North 403 464 25,800 1,317 Climbing FlightAware ADS-B (WSAT / TGA)
Tue 04:03:55 AM 2.3174 103.5089 North 401 461 26,500 1,100 Climbing FlightAware ADS-B (WSAT / TGA)
Tue 04:04:25 AM 2.3742 103.5186 North 407 468 26,900 1,000 Climbing FlightAware ADS-B (WSAT / TGA)
Tue 04:04:55 AM 2.4304 103.5279 North 409 471 27,500 1,424 Climbing FlightAware ADS-B (WSAT / TGA)
Tue 04:05:24 AM 2.4843 103.5368 North 405 466 28,300 1,600 Climbing FlightAware ADS-B (WSAT / TGA)
Tue 04:05:55 AM 2.5395 103.5446 North 398 458 29,100 1,279 Climbing FlightAware ADS-B (WSAT / TGA)
Tue 04:06:25 AM 2.5958 103.5506 North 401 461 29,600 915 Climbing FlightAware ADS-B (WSAT / TGA)
Tue 04:06:54 AM 2.6464 103.5626 23° Northeast 396 456 30,000 393 Climbing FlightAware ADS-B (WSAT / TGA)
Tue 04:07:26 AM 2.6971 103.5923 33° Northeast 402 463 30,000  Level FlightAware ADS-B (WSAT / TGA)
Tue 04:14:27 AM 3.5087 103.9291 330° Northwest 394 453 30,000  Level FlightAware ADS-B
Tue 04:15:53 AM 3.6684 103.9661 13° North 460 529 30,000  Level FlightAware ADS-B
Tue 04:16:23 AM 3.7309 103.9805 13° North 460 529 30,000  Level FlightAware ADS-B
Tue 04:16:53 AM 3.7921 103.9947 13° North 461 531 30,000 19 Level FlightAware ADS-B
Tue 05:08:26 AM 10.2210 104.6180 10° North 457 526 31,000 19 Climbing FlightAware ADS-B
Tue 05:09:02 AM 10.3000 104.6320 10° North 455 524 31,000  Level FlightAware ADS-B
Tue 05:09:38 AM 10.3750 104.6450 10° North 452 520 31,000  Level FlightAware ADS-B
Tue 05:10:09 AM 10.4370 104.6570 10° North 452 520 31,000  Level FlightAware ADS-B
Tue 05:11:07 AM 10.5580 104.6780 North 451 519 31,000  Level FlightAware ADS-B
Tue 05:11:38 AM 10.6220 104.6890 North 450 518 31,000  Level FlightAware ADS-B
Tue 05:12:14 AM 10.6970 104.7010 North 451 519 31,000  Level FlightAware ADS-B
Tue 05:12:51 AM 10.7690 104.7140 North 452 520 31,000  Level FlightAware ADS-B
Tue 05:13:26 AM 10.8450 104.7260 North 451 519 31,000  Level FlightAware ADS-B
Tue 05:13:56 AM 10.9070 104.7370 North 448 516 31,000  Level FlightAware ADS-B
Tue 05:14:26 AM 10.9700 104.7470 North 447 514 31,000  Level FlightAware ADS-B
Tue 05:14:44 AM 11.0000 104.7530 16° North 449 517 31,000  Level FlightAware ADS-B
Tue 05:15:02 AM 11.0400 104.7690 27° Northeast 452 520 31,000  Level FlightAware ADS-B
Tue 05:15:20 AM 11.0720 104.7900 39° Northeast 452 520 31,000  Level FlightAware ADS-B
Tue 05:15:44 AM 11.1080 104.8280 50° Northeast 454 522 31,000  Level FlightAware ADS-B
Tue 05:16:21 AM 11.1530 104.8890 54° Northeast 453 521 31,000  Level FlightAware ADS-B
Tue 05:16:50 AM 11.1880 104.9420 54° Northeast 452 520 31,000  Level FlightAware ADS-B
Tue 05:17:26 AM 11.2310 105.0030 53° Northeast 451 519 31,000  Level FlightAware ADS-B
Tue 05:18:02 AM 11.2730 105.0630 53° Northeast 451 519 31,000  Level FlightAware ADS-B
Tue 05:18:27 AM 11.3060 105.1070 48° Northeast 449 517 31,000  Level FlightAware ADS-B
Tue 05:18:50 AM 11.3410 105.1430 41° Northeast 447 514 31,000  Level FlightAware ADS-B
Tue 05:19:14 AM 11.3810 105.1710 29° Northeast 449 517 31,000  Level FlightAware ADS-B
Tue 05:19:51 AM 11.4470 105.2080 29° Northeast 449 517 31,000  Level FlightAware ADS-B
Tue 05:20:27 AM 11.5130 105.2460 29° Northeast 448 516 31,000  Level FlightAware ADS-B
Tue 05:20:56 AM 11.5700 105.2730 20° North 449 517 31,000  Level FlightAware ADS-B
Tue 05:21:21 AM 11.6190 105.2900 18° North 450 518 31,000  Level FlightAware ADS-B
Tue 05:23:24 AM 11.8630 105.3710 16° North 457 526 31,000  Level FlightAware ADS-B
Tue 05:23:36 AM 11.8861 105.3777 16° North 458 527 31,000  Level FlightAware ADS-B (EGCG)
Tue 05:23:56 AM 11.9300 105.3900 15° North 460 529 31,000  Level FlightAware ADS-B
Tue 05:23:58 AM 11.9250 105.3889 15° North 460 529 31,000  Level FlightAware ADS-B (VVTS / SGN)
Tue 05:24:33 AM 12.0040 105.4120 16° North 465 535 31,000  Level FlightAware ADS-B
Tue 05:25:08 AM 12.0780 105.4340 16° North 467 537 31,000 92 Level FlightAware ADS-B
Tue 05:25:38 AM 12.1420 105.4510 13° North 468 539 31,100 103 Climbing FlightAware ADS-B
Tue 05:26:06 AM 12.2014 105.4653 14° North 467 537 31,100  Level FlightAware ADS-B (EGCG)
Tue 05:26:14 AM 12.2150 105.4690 13° North 465 535 31,100  Level FlightAware ADS-B
Tue 05:26:44 AM 12.2800 105.4850 14° North 462 532 31,100  Level FlightAware ADS-B
Tue 05:26:51 AM 12.2948 105.4893 15° North 461 531 31,100  Level FlightAware ADS-B (EGCG)
Tue 05:27:20 AM 12.3530 105.5050 14° North 455 524 31,100 -158 Level FlightAware ADS-B
Tue 05:27:29 AM 12.3728 105.5103 14° North 447 514 31,000  Descending FlightAware ADS-B (EGCG)
Tue 05:27:51 AM 12.4140 105.5210 13° North 442 509 31,100  Climbing FlightAware ADS-B
Tue 05:28:07 AM 12.4477 105.5288 13° North 443 510 31,000 -171 Descending FlightAware ADS-B (EGCG)
Tue 05:28:26 AM 12.4870 105.5380 12° North 446 513 31,000  Level FlightAware ADS-B
Tue 05:29:02 AM 12.5600 105.5530 North 452 520 31,000  Level FlightAware ADS-B
Tue 05:29:32 AM 12.6240 105.5550 359° North 461 531 31,000  Level FlightAware ADS-B
Tue 05:30:08 AM 12.7010 105.5530 359° North 462 532 31,000  Level FlightAware ADS-B
Tue 05:30:48 AM 12.7860 105.5510 359° North 459 528 31,000  Level FlightAware ADS-B
Tue 05:31:20 AM 12.8200 105.5500 359° North 462 532 31,000 71 Level FlightAware ADS-B
Tue 05:32:13 AM 12.9680 105.5470 359° North 467 537 31,100 113 Climbing FlightAware ADS-B
Tue 05:34:00 AM 13.1551 105.5955 14° North  Level Estimated
Tue 05:35:00 AM 13.2600 105.6227 14° North  Level Estimated
Tue 05:36:00 AM 13.3717 105.6516 14° North  Level Estimated
Tue 05:37:00 AM 13.4833 105.6806 14° North  Level Estimated
Tue 05:38:00 AM 13.5949 105.7097 14° North  Level Estimated
Tue 05:39:00 AM 13.7065 105.7387 14° North  Level Estimated
Tue 05:40:00 AM 13.8181 105.7678 14° North  Level Estimated
Tue 05:41:00 AM 13.9297 105.7969 14° North  Level Estimated
Tue 05:42:00 AM 14.0413 105.8260 14° North  Level Estimated
Tue 05:43:00 AM 14.1529 105.8552 14° North  Level Estimated
Tue 05:44:00 AM 14.2645 105.8844 14° North  Level Estimated
Tue 05:45:00 AM 14.3761 105.9136 14° North  Level Estimated
Tue 05:46:00 AM 14.4877 105.9429 14° North  Level Estimated
Tue 05:47:00 AM 14.5992 105.9721 14° North  Level Estimated
Tue 05:48:00 AM 14.7108 106.0014 14° North  Level Estimated
Tue 05:49:00 AM 14.8224 106.0308 14° North  Level Estimated
Tue 05:50:00 AM 14.9340 106.0602 14° North  Level Estimated
Tue 05:51:00 AM 15.0455 106.0896 14° North  Level Estimated
Tue 05:52:00 AM 15.1571 106.1190 14° North  Level Estimated
Tue 05:53:00 AM 15.2686 106.1485 14° North  Level Estimated
Tue 05:54:00 AM 15.3802 106.1779 14° North  Level Estimated
Tue 05:55:00 AM 15.4917 106.2075 14° North  Level Estimated
Tue 05:56:00 AM 15.6033 106.2370 14° North  Level Estimated
Tue 05:57:00 AM 15.7148 106.2666 14° North  Level Estimated
Tue 05:58:00 AM 15.8264 106.2962 14° North  Level Estimated
Tue 05:59:00 AM 15.9379 106.3259 14° North  Level Estimated
Tue 06:00:00 AM 16.0494 106.3556 14° North  Level Estimated
Tue 06:01:00 AM 16.1610 106.3853 14° North  Level Estimated
Tue 06:02:00 AM 16.2725 106.4150 14° North  Level Estimated
Tue 06:03:00 AM 16.3840 106.4448 14° North  Level Estimated
Tue 06:04:00 AM 16.4955 106.4747 14° North  Level Estimated
Tue 06:05:00 AM 16.6070 106.5045 14° North  Level Estimated
Tue 06:06:00 AM 16.7185 106.5344 14° North  Level Estimated
Tue 06:07:00 AM 16.8300 106.5643 14° North  Level Estimated
Tue 06:08:00 AM 16.9415 106.5943 14° North  Level Estimated
Tue 06:09:00 AM 17.0530 106.6243 14° North  Level Estimated
Tue 06:10:00 AM 17.1645 106.6543 14° North  Level Estimated
Tue 06:11:00 AM 17.2760 106.6844 14° North  Level Estimated
Tue 06:12:00 AM 17.3875 106.7145 14° North  Level Estimated
Tue 06:13:00 AM 17.4989 106.7446 14° North  Level Estimated
Tue 06:14:00 AM 17.6104 106.7748 14° North  Level Estimated
Tue 06:15:00 AM 17.7219 106.8050 14° North  Level Estimated
Tue 06:16:00 AM 17.8333 106.8353 14° North  Level Estimated
Tue 06:17:00 AM 17.9448 106.8656 14° North  Level Estimated
Tue 06:18:00 AM 18.0562 106.8959 15° North  Level Estimated
Tue 06:19:00 AM 18.1677 106.9263 15° North  Level Estimated
Tue 06:20:00 AM 18.2791 106.9567 15° North  Level Estimated
Tue 06:21:00 AM 18.3906 106.9871 15° North  Level Estimated
Tue 06:22:00 AM 18.5020 107.0176 15° North  Level Estimated
Tue 06:23:00 AM 18.6134 107.0481 15° North  Level Estimated
Tue 06:24:00 AM 18.7248 107.0787 15° North  Level Estimated
Tue 06:25:00 AM 18.8363 107.1093 15° North  Level Estimated
Tue 06:26:00 AM 18.9477 107.1400 15° North  Level Estimated
Tue 06:27:00 AM 19.0591 107.1706 15° North  Level Estimated
Tue 06:28:00 AM 19.1705 107.2014 15° North  Level Estimated
Tue 06:29:00 AM 19.2819 107.2321 15° North  Level Estimated
Tue 06:30:00 AM 19.3933 107.2629 15° North  Level Estimated
Tue 06:31:00 AM 19.5047 107.2938 15° North  Level Estimated
Tue 06:32:00 AM 19.6160 107.3247 15° North  Level Estimated
Tue 06:33:00 AM 19.7274 107.3556 15° North  Level Estimated
Tue 06:34:00 AM 19.8388 107.3866 15° North  Level Estimated
Tue 06:35:00 AM 19.9501 107.4176 15° North  Level Estimated
Tue 06:36:00 AM 20.0615 107.4487 15° North  Level Estimated
Tue 06:37:00 AM 20.1729 107.4798 15° North  Level Estimated
Tue 06:38:00 AM 20.2842 107.5110 15° North  Level Estimated
Tue 06:39:00 AM 20.3955 107.5422 15° North  Level Estimated
Tue 06:40:00 AM 20.5069 107.5734 15° North  Level Estimated
Tue 06:41:00 AM 20.6182 107.6047 15° North  Level Estimated
Tue 06:42:00 AM 20.7295 107.6361 15° North  Level Estimated
Tue 06:43:00 AM 20.8409 107.6675 15° North  Level Estimated
Tue 06:44:00 AM 20.9522 107.6989 15° North  Level Estimated
Tue 06:45:00 AM 21.0635 107.7304 15° North  Level Estimated
Tue 06:46:00 AM 21.1748 107.7619 15° North  Level Estimated
Tue 06:47:00 AM 21.2861 107.7935 15° North  Level Estimated
Tue 06:48:00 AM 21.3974 107.8251 15° North  Level Estimated
Tue 06:49:00 AM 21.5087 107.8568 15° North  Level Estimated
Tue 06:50:00 AM 21.6199 107.8885 15° North  Level Estimated
Tue 06:51:00 AM 21.7312 107.9202 15° North  Level Estimated
Tue 06:52:00 AM 21.8425 107.9521 15° North  Level Estimated
Tue 06:53:00 AM 21.9538 107.9839 15° North  Level Estimated
Tue 06:54:00 AM 22.0650 108.0158 15° North  Level Estimated
Tue 06:55:00 AM 22.1763 108.0478 15° North  Level Estimated
Tue 06:56:00 AM 22.2875 108.0798 15° North  Level Estimated
Tue 06:57:00 AM 22.3987 108.1119 15° North  Level Estimated
Tue 06:58:00 AM 22.5100 108.1440 15° North  Level Estimated
Tue 06:59:00 AM 22.6083 108.1724 15° North  Level Estimated
Tue 07:00:00 AM 22.6083 108.1724 North  Level Estimated
Tue 07:01:00 AM 22.6083 108.1724 North  Level Estimated
Tue 07:02:00 AM 22.6083 108.1724 North  Level Estimated
Tue 07:03:00 AM 22.6083 108.1724 North  Level Estimated
Tue 07:04:00 AM 22.6083 108.1724 North  Level Estimated
Tue 07:05:00 AM 22.6083 108.1724 North  Level Estimated
Tue 07:06:00 AM 22.6083 108.1724 North  Level Estimated
Tue 07:07:00 AM 22.6083 108.1724 North  Level Estimated
Tue 07:08:00 AM 22.6083 108.1724 North  Level Estimated
Tue 07:09:00 AM 22.6083 108.1724 North  Level Estimated
Tue 07:10:00 AM 22.6083 108.1724 North  Level Estimated
Tue 07:11:00 AM 22.6083 108.1724 North  Level Estimated
Tue 07:12:00 AM 22.6083 108.1724 North  Level Estimated
Tue 07:13:00 AM 22.6083 108.1724 North  Level Estimated

Login

Don't have an account? Register now (free) for customized features, flight alerts, and more!